Miscellaneous Local Product
Issued by NWS North Platte, NE

Home | Current Version | Previous Version | Text Only | Print | Product List | Glossary On
Versions: 1 2 3 4 5 6 7 8 9 10 11 12 13 14 15 16 17 18 19 20 21 22 23 24 25 26 27 28 29 30 31 32 33 34 35 36 37 38 39 40 41 42 43 44 45 46 47 48 49 50
000
AXUS43 KLBF 050410
MISLBF


WESTERN AND NORTH CENTRAL NEBRASKA HOURLY WEATHER ROUNDUP
NATIONAL WEATHER SERVICE NORTH PLATTE NE
1100 PM CDT MON MAY 04 2015

***STATIONS NOT REPORTING VARIABLES SUCH AS SKY/WEATHER OR
PRESSURE ARE PROVIDED BY THE NEBRASKA DEPARTMENT OF
ROADS...RAWS...AND APRS NETWORKS...AND ARE NOT UNDER
NATIONAL WEATHER SERVICE QUALITY CONTROL***

...OBSERVATIONS IN AND NEAR THE EASTERN PANHANDLE OF NEBRASKA...

CITY           SKY/WX    TMP DP  RH WIND       PRES   REMARKS
PINE RIDGE     PTCLDY    40  31  70 E3        30.11R
CHADRON        PTCLDY    44  41  89 CALM      30.11R
ALLIANCE       MOCLDY    49  38  65 SE10      30.12R
SIDNEY         CLOUDY    47  41  80 E10       30.13S
WHITECLAY        N/A     44  29  57 E3          N/A
CRESCENT LAKE    N/A     49  36  60 SE5G12      N/A
BIG SPRINGS      N/A     49  44  84 CALM        N/A
$$

...OBSERVATIONS IN NORTH CENTRAL NEBRASKA...

CITY           SKY/WX    TMP DP  RH WIND       PRES   REMARKS
VALENTINE      MOCLDY    54  36  50 S6        30.12S
THEDFORD       CLOUDY    56  42  60 CALM      30.14S
AINSWORTH      MOCLDY    50  39  64 S5        30.14R
O`NEILL        MOCLDY    55  47  73 SE3       30.14R
ORD            CLOUDY    54  49  83 E6        30.11R
BROKEN BOW     CLOUDY    54  50  86 E8        30.11F
BROWNLEE         N/A     58  35  42 SE6         N/A
SPRINGVIEW       N/A     54  40  59 CALM        N/A
HALSEY           N/A     52  43  71 CALM        N/A
BREWSTER         N/A     53  49  87 CALM        N/A
ROSE             N/A     55  46  71 E3          N/A
NEWPORT          N/A     51  44  75 CALM        N/A
SARGENT          N/A     54  49  85 CALM        N/A
COMSTOCK         N/A     56  55  97 E6          N/A
EWING            N/A     54  49  82 CALM        N/A
$$

...OBSERVATIONS IN SOUTHWEST NEBRASKA AND FAR NORTHEAST COLORADO...

CITY           SKY/WX    TMP DP  RH WIND       PRES   REMARKS
WRAY           CLOUDY    49  46  90 NE5       30.13R
IMPERIAL       CLOUDY    49  45  86 E7        30.13R
OGALLALA       CLOUDY    49  46  90 CALM      30.13R
NORTH PLATTE   CLOUDY    51  48  89 E9        30.11F
MCCOOK         CLOUDY    52  51  97 E8        30.11R FOG
LEXINGTON      CLOUDY    53  51  95 E8        30.11F FOG
PAXTON           N/A     50  47  90 CALM        N/A
SUTHERLAND       N/A     46  44  91 E3          N/A
GOTHENBURG       N/A     52  49  90 E7          N/A
CALLAWAY         N/A     52  50  93 E7          N/A
$$

...NORTH PLATTE AREA...

CITY           SKY/WX    TMP DP  RH WIND       PRES   REMARKS
AIRPORT        CLOUDY    51  48  89 E9        30.11F
DOWNTOWN         N/A     51  47  88 CALM        N/A
$$

...SOME WEATHER OBSERVATIONS FROM AROUND THE REGION...

CITY           SKY/WX    TMP DP  RH WIND       PRES   REMARKS
DENVER         CLOUDY    50  48  93 E13       30.09S
LARAMIE        MOCLDY    44  41  89 SE13      30.10R
CHEYENNE       CLOUDY    45  42  89 SE17      30.12R
SCOTTSBLUFF    MOCLDY    50  40  68 SE9       30.11R
RAPID CITY     MOCLDY    50  38  63 SW7       30.11S
PIERRE         MOCLDY    55  24  30 CALM      30.11R
WINNER         CLOUDY    59  32  36 SE8       30.11S
SIOUX FALLS    MOCLDY    54  30  40 E8        30.13S
OMAHA          CLOUDY    60  56  86 CALM      30.08R
GRAND ISLAND   CLOUDY    54  53  97 NE8       30.11F FOG
KANSAS CITY    LGT RAIN  62  61  96 CALM      30.11S
WICHITA        CLOUDY    71  57  61 SE8       30.05R
HAYS           CLOUDY    61  52  72 NE9       30.01F
LIBERAL        CLOUDY    63  54  72 NE13      30.03R
GOODLAND       CLOUDY    51  47  86 E10       30.12R
$$



USA.gov is the U.S. government's official web portal to all federal, state and local government web resources and services.